{"data":{"norad_id":39035,"intl_designator":"2012-075B","name":"MEXSAT 3","alt_names":[],"object_type":"PAYLOAD","status":"ACTIVE","operator":null,"country":"MEX","launch_date":"2012-12-19","launch_site_code":"FRGUI","launch_vehicle":null,"mission":null,"orbit_class":"UNKNOWN","rcs_meters":79.4454,"size_class":null,"mass_kg":null,"dimensions":null,"purposes":["comms"],"wikipedia_slug":null,"has_3d_model":false,"image_url":null,"decayed_at":null,"tle_current":{"epoch":"2026-09-18T21:36:34.153056Z","epoch_age_seconds":160232,"freshness":"FRESH","line1":"1 39035U 12075B   26261.90039529 -.00000030  00000+0  00000+0 0  9991","line2":"2 39035   0.0163 113.2666 0001579 122.5761 331.3673  1.00272773  7993","mean_motion":1.00272773,"eccentricity":0.0001579,"inclination_deg":0.0163,"raan_deg":113.2666,"arg_perigee_deg":122.5761,"mean_anomaly_deg":331.3673,"bstar":0,"rev_number":799,"period_min":1436.0827539895,"perigee_km":35779.660223756,"apogee_km":35792.975758643,"semimajor_km":42164.454991199,"source":"CELESTRAK","updated_at":"2026-09-20T09:00:35.179879Z"}}}